TimeEDT,TemperatureF,Dew PointF,Humidity,Sea Level PressureIn,VisibilityMPH,Wind Direction,Wind SpeedMPH,Gust SpeedMPH,PrecipitationIn,Events,Conditions,WindDirDegrees,DateUTC
12:53 AM,61.0,61.0,100,30.00,0.2,SSE,5.8,-,N/A,Fog,Fog,160,2013-08-09 04:53:00
1:53 AM,61.0,61.0,100,30.00,0.2,South,9.2,-,0.01,Fog,Fog,170,2013-08-09 05:53:00
2:53 AM,61.0,61.0,100,29.99,0.2,SSE,9.2,-,N/A,Fog,Fog,160,2013-08-09 06:53:00
3:53 AM,61.0,61.0,100,29.98,0.5,South,8.1,-,N/A,Fog,Fog,170,2013-08-09 07:53:00
4:53 AM,61.0,60.1,97,29.98,0.8,SSE,10.4,-,N/A,,Mist,160,2013-08-09 08:53:00
4:59 AM,60.8,60.8,100,29.99,1.5,SSE,8.1,-,N/A,,Overcast,160,2013-08-09 08:59:00
5:05 AM,60.8,60.8,100,29.99,2.0,South,9.2,-,N/A,,Overcast,170,2013-08-09 09:05:00
5:28 AM,60.8,60.8,100,29.99,4.0,South,9.2,-,N/A,,Overcast,180,2013-08-09 09:28:00
5:53 AM,61.0,60.1,97,29.98,2.5,SSE,9.2,-,N/A,,Overcast,160,2013-08-09 09:53:00
6:05 AM,60.8,60.8,100,29.99,4.0,South,9.2,-,N/A,,Overcast,170,2013-08-09 10:05:00
6:53 AM,61.0,60.1,97,29.98,5.0,SSE,8.1,-,N/A,,Overcast,160,2013-08-09 10:53:00
7:04 AM,60.8,60.8,100,29.99,2.5,SSE,6.9,-,N/A,,Overcast,160,2013-08-09 11:04:00
7:12 AM,60.8,60.8,100,29.99,4.0,South,5.8,-,N/A,,Overcast,170,2013-08-09 11:12:00
7:18 AM,60.8,60.8,100,29.98,1.8,SSE,5.8,-,N/A,,Overcast,150,2013-08-09 11:18:00
7:21 AM,60.8,60.8,100,29.98,1.2,SE,5.8,-,N/A,,Overcast,140,2013-08-09 11:21:00
7:30 AM,60.8,60.8,100,29.98,0.2,SSE,6.9,-,N/A,Fog,Fog,150,2013-08-09 11:30:00
7:53 AM,61.0,61.0,100,29.98,0.2,SE,3.5,-,N/A,Fog,Fog,130,2013-08-09 11:53:00
8:53 AM,62.1,61.0,96,29.97,0.2,SE,6.9,-,N/A,Fog,Fog,140,2013-08-09 12:53:00
9:53 AM,63.0,62.1,97,29.93,0.2,East,3.5,-,0.01,Fog-Rain,Light Rain,100,2013-08-09 13:53:00
10:05 AM,62.6,62.6,100,29.92,1.8,ESE,8.1,-,0.00,Rain,Light Rain,110,2013-08-09 14:05:00
10:08 AM,62.6,62.6,100,29.92,3.0,East,6.9,-,0.00,Rain,Light Rain,100,2013-08-09 14:08:00
10:53 AM,63.0,63.0,100,29.92,10.0,ESE,6.9,-,0.00,,Overcast,120,2013-08-09 14:53:00
11:22 AM,64.4,62.6,94,29.93,10.0,SE,10.4,-,N/A,,Overcast,140,2013-08-09 15:22:00
11:53 AM,64.0,62.1,93,29.92,10.0,SSE,9.2,-,N/A,,Overcast,160,2013-08-09 15:53:00
12:45 PM,64.4,62.6,94,29.90,10.0,SE,5.8,-,N/A,,Overcast,140,2013-08-09 16:45:00
12:53 PM,64.9,63.0,93,29.90,10.0,SSE,5.8,-,N/A,,Overcast,150,2013-08-09 16:53:00
1:53 PM,64.9,63.0,93,29.88,10.0,SE,5.8,-,N/A,,Overcast,130,2013-08-09 17:53:00
2:53 PM,64.9,63.0,93,29.86,10.0,South,8.1,-,N/A,,Overcast,170,2013-08-09 18:53:00
3:01 PM,64.4,62.6,94,29.86,9.0,SSE,6.9,-,N/A,,Overcast,150,2013-08-09 19:01:00
3:53 PM,64.9,64.0,97,29.84,8.0,SSE,5.8,-,N/A,,Overcast,150,2013-08-09 19:53:00
4:10 PM,64.4,64.4,100,29.85,1.8,SSE,6.9,-,0.00,Rain,Light Rain,150,2013-08-09 20:10:00
4:12 PM,64.4,64.4,100,29.85,1.0,SSE,6.9,-,0.00,Rain,Light Rain,150,2013-08-09 20:12:00
4:19 PM,64.4,64.4,100,29.85,0.2,SSE,5.8,-,0.01,Fog-Rain,Light Rain,150,2013-08-09 20:19:00
4:53 PM,64.9,64.0,97,29.83,0.2,SE,4.6,-,0.02,Fog,Fog,130,2013-08-09 20:53:00
5:11 PM,64.4,64.4,100,29.83,0.2,SE,6.9,-,0.00,Fog,Fog,140,2013-08-09 21:11:00
5:24 PM,64.4,64.4,100,29.82,0.5,SE,8.1,-,0.00,Fog,Fog,130,2013-08-09 21:24:00
5:53 PM,64.9,64.9,100,29.81,0.2,SE,4.6,-,0.00,Fog,Fog,130,2013-08-09 21:53:00
6:53 PM,66.0,64.9,96,29.79,0.2,SSE,6.9,-,N/A,Fog,Fog,160,2013-08-09 22:53:00
7:21 PM,66.2,66.2,100,29.79,1.8,SSE,6.9,-,N/A,,Overcast,160,2013-08-09 23:21:00
7:23 PM,66.2,66.2,100,29.79,4.0,SSE,6.9,-,N/A,,Overcast,160,2013-08-09 23:23:00
7:53 PM,66.0,66.0,100,29.77,10.0,SSE,8.1,-,0.00,Rain,Light Rain,160,2013-08-09 23:53:00
8:32 PM,66.2,66.2,100,29.77,10.0,SSE,11.5,-,0.02,Rain,Light Rain,150,2013-08-10 00:32:00
8:35 PM,66.2,66.2,100,29.77,10.0,SSE,10.4,-,0.02,Rain,Light Rain,150,2013-08-10 00:35:00
8:53 PM,66.0,66.0,100,29.75,6.0,SSE,10.4,-,0.02,,Overcast,160,2013-08-10 00:53:00
9:53 PM,64.9,64.0,97,29.74,10.0,South,5.8,-,N/A,,Mostly Cloudy,180,2013-08-10 01:53:00
10:40 PM,64.4,62.6,94,29.73,10.0,South,9.2,-,N/A,,Mostly Cloudy,170,2013-08-10 02:40:00
10:53 PM,64.9,63.0,93,29.72,10.0,South,9.2,-,N/A,,Overcast,170,2013-08-10 02:53:00
11:32 PM,64.4,62.6,94,29.71,10.0,South,5.8,-,N/A,,Overcast,180,2013-08-10 03:32:00
11:42 PM,64.4,62.6,94,29.71,10.0,South,5.8,-,N/A,,Overcast,190,2013-08-10 03:42:00
11:53 PM,64.0,63.0,96,29.70,5.0,South,6.9,-,N/A,,Overcast,170,2013-08-10 03:53:00